Time,TemperatureF,DewpointF,PressureIn,WindDirection,WindDirectionDegrees,WindSpeedMPH,WindSpeedGustMPH,Humidity,HourlyPrecipIn,Conditions,Clouds,dailyrainin,SoftwareType,DateUTC
2017-12-17 00:04:00,60.0,54.5,30.26,South,180,3.0,6.0,82,0.00,,SCT200,0.00,VWS V15.00,2017-12-17 05:04:00,
2017-12-17 00:09:00,60.0,54.5,30.26,NNE,22,3.0,3.0,82,0.00,,SCT200,0.00,VWS V15.00,2017-12-17 05:09:00,
2017-12-17 00:14:00,60.0,54.8,30.26,South,180,1.0,1.0,83,0.00,,SCT200,0.00,VWS V15.00,2017-12-17 05:14:00,
2017-12-17 00:19:00,60.0,54.8,30.25,NNE,22,4.0,5.0,83,0.00,,SCT200,0.00,VWS V15.00,2017-12-17 05:19:00,
2017-12-17 00:21:00,59.0,53.8,30.26,NNE,22,4.0,8.0,83,0.00,,SCT200,0.00,VWS V15.00,2017-12-17 05:21:00,
2017-12-17 00:26:00,59.0,53.8,30.26,North,360,6.0,6.0,83,0.00,,SCT200,0.00,VWS V15.00,2017-12-17 05:26:00,
2017-12-17 00:31:00,59.0,53.8,30.26,NNE,22,5.0,5.0,83,0.00,,SCT200,0.00,VWS V15.00,2017-12-17 05:31:00,
2017-12-17 00:34:00,59.0,53.8,30.26,NNE,22,3.0,7.0,83,0.00,,SCT200,0.00,VWS V15.00,2017-12-17 05:34:00,
2017-12-17 00:36:00,59.0,53.8,30.25,NNE,22,4.0,6.0,83,0.00,,SCT200,0.00,VWS V15.00,2017-12-17 05:36:00,
2017-12-17 00:42:00,59.0,54.2,30.25,NNE,22,6.0,6.0,84,0.00,,SCT200,0.00,VWS V15.00,2017-12-17 05:42:00,
2017-12-17 00:44:00,59.0,54.2,30.25,NNW,337,4.0,4.0,84,0.00,,SCT200,0.00,VWS V15.00,2017-12-17 05:44:00,
2017-12-17 00:47:00,59.0,54.2,30.25,South,180,2.0,6.0,84,0.00,,SCT200,0.00,VWS V15.00,2017-12-17 05:47:00,
2017-12-17 00:52:00,59.0,54.2,30.26,NNE,22,3.0,5.0,84,0.00,,SCT200,0.00,VWS V15.00,2017-12-17 05:52:00,
2017-12-17 00:57:00,59.0,54.2,30.25,NNE,22,3.0,4.0,84,0.00,,SCT200,0.00,VWS V15.00,2017-12-17 05:57:00,
2017-12-17 01:02:00,59.0,54.2,30.26,North,360,6.0,7.0,84,0.00,,BKN220,0.00,VWS V15.00,2017-12-17 06:02:00,
2017-12-17 01:07:00,59.0,54.5,30.27,North,360,4.0,6.0,85,0.00,,BKN220,0.00,VWS V15.00,2017-12-17 06:07:00,
2017-12-17 01:12:00,58.0,53.5,30.26,North,360,4.0,8.0,85,0.00,,BKN220,0.00,VWS V15.00,2017-12-17 06:12:00,
2017-12-17 01:17:00,58.0,53.5,30.27,North,360,5.0,7.0,85,0.00,,BKN220,0.00,VWS V15.00,2017-12-17 06:17:00,
2017-12-17 01:22:00,58.0,53.8,30.26,NNE,22,7.0,8.0,86,0.00,,BKN220,0.00,VWS V15.00,2017-12-17 06:22:00,
2017-12-17 01:27:00,58.0,53.8,30.26,North,360,7.0,9.0,86,0.00,,BKN220,0.00,VWS V15.00,2017-12-17 06:27:00,
2017-12-17 01:32:00,58.0,53.8,30.26,NNE,22,4.0,6.0,86,0.00,,BKN220,0.00,VWS V15.00,2017-12-17 06:32:00,
2017-12-17 01:37:00,58.0,53.8,30.26,NNE,22,3.0,6.0,86,0.00,,BKN220,0.00,VWS V15.00,2017-12-17 06:37:00,
2017-12-17 01:39:00,58.0,53.8,30.26,North,360,4.0,7.0,86,0.00,,BKN220,0.00,VWS V15.00,2017-12-17 06:39:00,
2017-12-17 01:42:00,58.0,54.2,30.26,NNE,22,5.0,7.0,87,0.00,,BKN220,0.00,VWS V15.00,2017-12-17 06:42:00,
2017-12-17 01:47:00,58.0,54.2,30.26,North,360,4.0,6.0,87,0.00,,BKN220,0.00,VWS V15.00,2017-12-17 06:47:00,
2017-12-17 01:52:00,57.0,53.2,30.26,North,360,6.0,7.0,87,0.00,,BKN220,0.00,VWS V15.00,2017-12-17 06:52:00,
2017-12-17 01:54:00,57.0,53.2,30.26,NNE,22,5.0,6.0,87,0.00,,BKN220,0.00,VWS V15.00,2017-12-17 06:54:00,
2017-12-17 02:00:00,57.0,53.2,30.26,NNE,22,7.0,8.0,87,0.00,,BKN220,0.00,VWS V15.00,2017-12-17 07:00:00,
2017-12-17 02:05:00,57.0,53.2,30.26,North,360,6.0,7.0,87,0.00,,SCT220,0.00,VWS V15.00,2017-12-17 07:05:00,
2017-12-17 02:06:00,57.0,53.5,30.26,South,180,6.0,9.0,88,0.00,,SCT220,0.00,VWS V15.00,2017-12-17 07:06:00,
2017-12-17 02:11:00,57.0,53.5,30.26,NNE,22,4.0,11.0,88,0.00,,SCT220,0.00,VWS V15.00,2017-12-17 07:11:00,
2017-12-17 02:16:00,57.0,53.5,30.26,NNE,22,5.0,6.0,88,0.00,,SCT220,0.00,VWS V15.00,2017-12-17 07:16:00,
2017-12-17 02:21:00,57.0,53.5,30.26,NNE,22,4.0,7.0,88,0.00,,SCT220,0.00,VWS V15.00,2017-12-17 07:21:00,
2017-12-17 02:27:00,57.0,53.5,30.25,NNE,22,8.0,9.0,88,0.00,,SCT220,0.00,VWS V15.00,2017-12-17 07:27:00,
2017-12-17 02:28:00,57.0,53.5,30.25,NNE,22,6.0,8.0,88,0.00,,SCT220,0.00,VWS V15.00,2017-12-17 07:28:00,
2017-12-17 02:33:00,57.0,53.5,30.25,NNE,22,4.0,7.0,88,0.00,,SCT220,0.00,VWS V15.00,2017-12-17 07:33:00,
2017-12-17 02:38:00,57.0,53.5,30.24,North,360,5.0,5.0,88,0.00,,SCT220,0.00,VWS V15.00,2017-12-17 07:38:00,
2017-12-17 02:43:00,57.0,53.5,30.24,NNE,22,7.0,9.0,88,0.00,,SCT220,0.00,VWS V15.00,2017-12-17 07:43:00,
2017-12-17 02:48:00,57.0,53.5,30.24,NNE,22,6.0,7.0,88,0.00,,SCT220,0.00,VWS V15.00,2017-12-17 07:48:00,
2017-12-17 02:50:00,57.0,53.5,30.24,NNE,22,4.0,8.0,88,0.00,,SCT220,0.00,VWS V15.00,2017-12-17 07:50:00,
2017-12-17 02:55:00,57.0,53.5,30.24,NNE,22,4.0,6.0,88,0.00,,SCT220,0.00,VWS V15.00,2017-12-17 07:55:00,
2017-12-17 02:58:00,57.0,53.5,30.24,NNE,22,5.0,7.0,88,0.00,,SCT220,0.00,VWS V15.00,2017-12-17 07:58:00,
2017-12-17 03:03:00,56.0,52.5,30.24,North,360,0.0,4.0,88,0.00,,SCT220,0.00,VWS V15.00,2017-12-17 08:03:00,
2017-12-17 03:08:00,56.0,52.8,30.24,NNE,22,4.0,9.0,89,0.00,,SCT220,0.00,VWS V15.00,2017-12-17 08:08:00,
2017-12-17 03:13:00,56.0,52.8,30.24,North,360,4.0,7.0,89,0.00,,SCT220,0.00,VWS V15.00,2017-12-17 08:13:00,
2017-12-17 03:19:00,56.0,52.8,30.24,North,360,5.0,5.0,89,0.00,,SCT220,0.00,VWS V15.00,2017-12-17 08:19:00,
2017-12-17 03:24:00,56.0,52.8,30.24,North,360,4.0,8.0,89,0.00,,SCT220,0.00,VWS V15.00,2017-12-17 08:24:00,
2017-12-17 03:29:00,56.0,52.8,30.24,North,360,3.0,6.0,89,0.00,,SCT220,0.00,VWS V15.00,2017-12-17 08:29:00,
2017-12-17 03:35:00,56.0,52.8,30.24,NNE,22,4.0,9.0,89,0.00,,FEW220,0.00,VWS V15.00,2017-12-17 08:35:00,
2017-12-17 03:40:00,56.0,52.8,30.23,NNW,337,4.0,6.0,89,0.00,,FEW220,0.00,VWS V15.00,2017-12-17 08:40:00,
2017-12-17 03:45:00,56.0,53.1,30.23,NNE,22,6.0,8.0,90,0.00,,FEW220,0.00,VWS V15.00,2017-12-17 08:45:00,
2017-12-17 03:50:00,56.0,53.1,30.23,NNE,22,8.0,9.0,90,0.00,,FEW220,0.00,VWS V15.00,2017-12-17 08:50:00,
2017-12-17 03:55:00,56.0,53.1,30.23,NNE,22,6.0,7.0,90,0.00,,FEW220,0.00,VWS V15.00,2017-12-17 08:55:00,
2017-12-17 03:59:00,56.0,53.1,30.23,NNE,22,6.0,7.0,90,0.00,,FEW220,0.00,VWS V15.00,2017-12-17 08:59:00,
2017-12-17 04:04:00,56.0,53.1,30.22,NNW,337,3.0,6.0,90,0.00,,CLR,0.00,VWS V15.00,2017-12-17 09:04:00,
2017-12-17 04:09:00,56.0,53.1,30.22,NNE,22,1.0,5.0,90,0.00,,CLR,0.00,VWS V15.00,2017-12-17 09:09:00,
2017-12-17 04:14:00,56.0,53.1,30.22,NNW,337,4.0,6.0,90,0.00,,CLR,0.00,VWS V15.00,2017-12-17 09:14:00,
2017-12-17 04:19:00,56.0,53.1,30.22,NNE,22,7.0,7.0,90,0.00,,CLR,0.00,VWS V15.00,2017-12-17 09:19:00,
2017-12-17 04:24:00,56.0,53.1,30.22,NNE,22,1.0,3.0,90,0.00,,CLR,0.00,VWS V15.00,2017-12-17 09:24:00,
2017-12-17 04:29:00,55.0,52.1,30.22,ESE,112,0.0,3.0,90,0.00,,CLR,0.00,VWS V15.00,2017-12-17 09:29:00,
2017-12-17 04:34:00,55.0,52.1,30.22,NNE,22,4.0,5.0,90,0.00,,CLR,0.00,VWS V15.00,2017-12-17 09:34:00,
2017-12-17 04:39:00,55.0,52.1,30.21,NNE,22,4.0,5.0,90,0.00,,CLR,0.00,VWS V15.00,2017-12-17 09:39:00,
2017-12-17 04:44:00,55.0,52.4,30.22,North,360,5.0,5.0,91,0.00,,CLR,0.00,VWS V15.00,2017-12-17 09:44:00,
2017-12-17 04:47:00,55.0,52.4,30.22,NNW,337,3.0,5.0,91,0.00,,CLR,0.00,VWS V15.00,2017-12-17 09:47:00,
2017-12-17 04:54:00,55.0,52.4,30.22,NNE,22,3.0,4.0,91,0.00,,CLR,0.00,VWS V15.00,2017-12-17 09:54:00,
2017-12-17 04:55:00,55.0,52.4,30.22,NNE,22,3.0,4.0,91,0.00,,CLR,0.00,VWS V15.00,2017-12-17 09:55:00,
2017-12-17 05:00:00,55.0,52.4,30.22,NNE,22,3.0,4.0,91,0.00,,CLR,0.00,VWS V15.00,2017-12-17 10:00:00,
2017-12-17 05:03:00,55.0,52.4,30.21,NNE,22,4.0,4.0,91,0.00,,CLR,0.00,VWS V15.00,2017-12-17 10:03:00,
2017-12-17 05:08:00,55.0,52.4,30.21,NNE,22,4.0,5.0,91,0.00,,CLR,0.00,VWS V15.00,2017-12-17 10:08:00,
2017-12-17 05:13:00,55.0,52.4,30.21,NNE,22,4.0,4.0,91,0.00,,CLR,0.00,VWS V15.00,2017-12-17 10:13:00,
2017-12-17 05:18:00,55.0,52.4,30.22,NNE,22,1.0,4.0,91,0.00,,CLR,0.00,VWS V15.00,2017-12-17 10:18:00,
2017-12-17 05:24:00,55.0,52.4,30.22,North,360,3.0,5.0,91,0.00,,CLR,0.00,VWS V15.00,2017-12-17 10:24:00,
2017-12-17 05:29:00,55.0,52.4,30.22,NNE,22,6.0,6.0,91,0.00,,CLR,0.00,VWS V15.00,2017-12-17 10:29:00,
2017-12-17 05:32:00,55.0,52.4,30.22,NNE,22,2.0,4.0,91,0.00,,CLR,0.00,VWS V15.00,2017-12-17 10:32:00,
2017-12-17 05:38:00,55.0,52.4,30.22,NNE,22,2.0,3.0,91,0.00,,CLR,0.00,VWS V15.00,2017-12-17 10:38:00,
2017-12-17 05:39:00,55.0,52.4,30.22,NNE,22,2.0,2.0,91,0.00,,CLR,0.00,VWS V15.00,2017-12-17 10:39:00,
2017-12-17 05:44:00,55.0,52.4,30.22,South,180,3.0,4.0,91,0.00,,CLR,0.00,VWS V15.00,2017-12-17 10:44:00,
2017-12-17 05:50:00,55.0,52.4,30.21,NNE,22,4.0,4.0,91,0.00,,CLR,0.00,VWS V15.00,2017-12-17 10:50:00,
2017-12-17 05:53:00,55.0,52.7,30.22,NNE,22,6.0,6.0,92,0.00,,CLR,0.00,VWS V15.00,2017-12-17 10:53:00,
2017-12-17 05:58:00,55.0,52.7,30.22,NNE,22,4.0,5.0,92,0.00,,CLR,0.00,VWS V15.00,2017-12-17 10:58:00,
2017-12-17 06:03:00,55.0,52.7,30.22,NNE,22,4.0,7.0,92,0.00,,CLR,0.00,VWS V15.00,2017-12-17 11:03:00,
2017-12-17 06:10:00,55.0,52.7,30.22,North,360,4.0,7.0,92,0.00,,CLR,0.00,VWS V15.00,2017-12-17 11:10:00,
2017-12-17 06:15:00,55.0,52.7,30.22,South,180,2.0,3.0,92,0.00,,CLR,0.00,VWS V15.00,2017-12-17 11:15:00,
2017-12-17 06:20:00,55.0,52.7,30.22,ESE,112,5.0,6.0,92,0.00,,CLR,0.00,VWS V15.00,2017-12-17 11:20:00,
2017-12-17 06:24:00,55.0,52.7,30.22,ESE,112,4.0,7.0,92,0.00,,CLR,0.00,VWS V15.00,2017-12-17 11:24:00,
2017-12-17 06:29:00,55.0,52.7,30.22,NNE,22,1.0,4.0,92,0.00,,CLR,0.00,VWS V15.00,2017-12-17 11:29:00,
2017-12-17 06:34:00,55.0,52.7,30.22,NNE,22,2.0,2.0,92,0.00,,CLR,0.00,VWS V15.00,2017-12-17 11:34:00,
2017-12-17 06:37:00,55.0,52.7,30.22,NNE,22,2.0,4.0,92,0.00,,CLR,0.00,VWS V15.00,2017-12-17 11:37:00,
2017-12-17 06:42:00,55.0,52.7,30.23,NNE,22,3.0,5.0,92,0.00,,CLR,0.00,VWS V15.00,2017-12-17 11:42:00,
2017-12-17 06:47:00,55.0,52.7,30.23,North,360,3.0,5.0,92,0.00,,CLR,0.00,VWS V15.00,2017-12-17 11:47:00,
2017-12-17 06:52:00,55.0,52.7,30.23,North,360,3.0,4.0,92,0.00,,CLR,0.00,VWS V15.00,2017-12-17 11:52:00,
2017-12-17 06:57:00,55.0,52.7,30.23,South,180,2.0,3.0,92,0.00,,CLR,0.00,VWS V15.00,2017-12-17 11:57:00,
2017-12-17 06:58:00,55.0,52.7,30.22,NNE,22,4.0,4.0,92,0.00,,CLR,0.00,VWS V15.00,2017-12-17 11:58:00,
2017-12-17 07:03:00,55.0,52.7,30.22,South,180,2.0,4.0,92,0.00,,CLR,0.00,VWS V15.00,2017-12-17 12:03:00,
2017-12-17 07:08:00,55.0,52.7,30.23,ESE,112,4.0,5.0,92,0.00,,CLR,0.00,VWS V15.00,2017-12-17 12:08:00,
2017-12-17 07:13:00,55.0,52.7,30.22,ESE,112,5.0,6.0,92,0.00,,CLR,0.00,VWS V15.00,2017-12-17 12:13:00,
2017-12-17 07:18:00,55.0,53.0,30.22,ESE,112,6.0,6.0,93,0.00,,CLR,0.00,VWS V15.00,2017-12-17 12:18:00,
2017-12-17 07:19:00,54.0,52.0,30.22,South,180,4.0,6.0,93,0.00,,CLR,0.00,VWS V15.00,2017-12-17 12:19:00,
2017-12-17 07:24:00,54.0,52.0,30.22,South,180,4.0,5.0,93,0.00,,CLR,0.00,VWS V15.00,2017-12-17 12:24:00,
2017-12-17 07:30:00,55.0,53.0,30.22,South,180,6.0,7.0,93,0.00,,CLR,0.00,VWS V15.00,2017-12-17 12:30:00,
2017-12-17 07:36:00,55.0,53.0,30.23,South,180,6.0,6.0,93,0.00,,CLR,0.00,VWS V15.00,2017-12-17 12:36:00,
2017-12-17 07:41:00,55.0,53.0,30.24,NNE,22,3.0,4.0,93,0.00,,CLR,0.00,VWS V15.00,2017-12-17 12:41:00,
2017-12-17 07:45:00,55.0,53.0,30.23,NNE,22,4.0,8.0,93,0.00,,CLR,0.00,VWS V15.00,2017-12-17 12:45:00,
2017-12-17 07:50:00,55.0,53.0,30.24,NNE,22,3.0,5.0,93,0.00,,CLR,0.00,VWS V15.00,2017-12-17 12:50:00,
2017-12-17 07:55:00,56.0,53.7,30.24,NNE,22,3.0,4.0,92,0.00,,CLR,0.00,VWS V15.00,2017-12-17 12:55:00,
2017-12-17 07:57:00,56.0,53.7,30.25,North,360,2.0,4.0,92,0.00,,CLR,0.00,VWS V15.00,2017-12-17 12:57:00,
2017-12-17 08:03:00,56.0,53.7,30.25,NNE,22,2.0,4.0,92,0.00,,FEW250,0.00,VWS V15.00,2017-12-17 13:03:00,
2017-12-17 08:08:00,56.0,53.7,30.25,NNE,22,3.0,6.0,92,0.00,,FEW250,0.00,VWS V15.00,2017-12-17 13:08:00,
2017-12-17 08:13:00,56.0,53.7,30.25,NNW,337,4.0,5.0,92,0.00,,FEW250,0.00,VWS V15.00,2017-12-17 13:13:00,
2017-12-17 08:18:00,56.0,53.7,30.26,NNE,22,3.0,4.0,92,0.00,,FEW250,0.00,VWS V15.00,2017-12-17 13:18:00,
2017-12-17 08:23:00,56.0,53.7,30.26,North,360,3.0,5.0,92,0.00,,FEW250,0.00,VWS V15.00,2017-12-17 13:23:00,
2017-12-17 08:27:00,56.0,53.7,30.26,North,360,4.0,6.0,92,0.00,,FEW250,0.00,VWS V15.00,2017-12-17 13:27:00,
2017-12-17 08:30:00,57.0,54.4,30.27,NNE,22,6.0,9.0,91,0.00,,FEW250,0.00,VWS V15.00,2017-12-17 13:30:00,
2017-12-17 08:35:00,57.0,54.4,30.27,NNW,337,3.0,7.0,91,0.00,,FEW250,0.00,VWS V15.00,2017-12-17 13:35:00,
2017-12-17 08:38:00,57.0,54.4,30.27,NNE,22,2.0,4.0,91,0.00,,FEW250,0.00,VWS V15.00,2017-12-17 13:38:00,
2017-12-17 08:43:00,57.0,54.1,30.27,NNE,22,5.0,6.0,90,0.00,,FEW250,0.00,VWS V15.00,2017-12-17 13:43:00,
2017-12-17 08:49:00,57.0,54.1,30.27,NNE,22,4.0,4.0,90,0.00,,FEW250,0.00,VWS V15.00,2017-12-17 13:49:00,
2017-12-17 08:54:00,58.0,55.1,30.27,NNE,22,4.0,6.0,90,0.00,,FEW250,0.00,VWS V15.00,2017-12-17 13:54:00,
2017-12-17 08:59:00,58.0,55.1,30.27,NNE,22,4.0,5.0,90,0.00,,FEW250,0.00,VWS V15.00,2017-12-17 13:59:00,
2017-12-17 09:04:00,58.0,55.1,30.27,ESE,112,2.0,4.0,90,0.00,,SCT340,0.00,VWS V15.00,2017-12-17 14:04:00,
2017-12-17 09:09:00,59.0,55.8,30.27,ESE,112,8.0,8.0,89,0.00,,SCT340,0.00,VWS V15.00,2017-12-17 14:09:00,
2017-12-17 09:14:00,59.0,55.8,30.27,South,180,3.0,6.0,89,0.00,,SCT340,0.00,VWS V15.00,2017-12-17 14:14:00,
2017-12-17 09:20:00,60.0,56.4,30.26,ESE,112,3.0,5.0,88,0.00,,SCT340,0.00,VWS V15.00,2017-12-17 14:20:00,
2017-12-17 09:25:00,60.0,56.1,30.27,South,180,6.0,7.0,87,0.00,,SCT340,0.00,VWS V15.00,2017-12-17 14:25:00,
2017-12-17 09:30:00,61.0,57.1,30.27,ESE,112,2.0,5.0,87,0.00,,SCT340,0.00,VWS V15.00,2017-12-17 14:30:00,
2017-12-17 09:35:00,62.0,57.8,30.27,South,180,3.0,4.0,86,0.00,,SCT340,0.00,VWS V15.00,2017-12-17 14:35:00,
2017-12-17 09:40:00,63.0,58.8,30.27,ESE,112,5.0,6.0,86,0.00,,SCT340,0.00,VWS V15.00,2017-12-17 14:40:00,
2017-12-17 09:45:00,64.0,59.1,30.27,ESE,112,2.0,5.0,84,0.00,,SCT340,0.00,VWS V15.00,2017-12-17 14:45:00,
2017-12-17 09:47:00,64.0,59.1,30.27,South,180,3.0,9.0,84,0.00,,SCT340,0.00,VWS V15.00,2017-12-17 14:47:00,
2017-12-17 09:52:00,65.0,59.7,30.27,South,180,5.0,7.0,83,0.00,,SCT340,0.00,VWS V15.00,2017-12-17 14:52:00,
2017-12-17 09:57:00,65.0,59.4,30.27,ESE,112,7.0,7.0,82,0.00,,SCT340,0.00,VWS V15.00,2017-12-17 14:57:00,
2017-12-17 09:59:00,65.0,59.4,30.27,ESE,112,6.0,9.0,82,0.00,,SCT340,0.00,VWS V15.00,2017-12-17 14:59:00,
2017-12-17 10:05:00,65.0,59.0,30.27,South,180,9.0,10.0,81,0.00,,SCT350,0.00,VWS V15.00,2017-12-17 15:05:00,
2017-12-17 10:09:00,66.0,59.7,30.27,South,180,7.0,7.0,80,0.00,,SCT350,0.00,VWS V15.00,2017-12-17 15:09:00,
2017-12-17 10:14:00,66.0,59.7,30.27,ESE,112,4.0,6.0,80,0.00,,SCT350,0.00,VWS V15.00,2017-12-17 15:14:00,
2017-12-17 10:19:00,67.0,60.3,30.27,ESE,112,4.0,10.0,79,0.00,,SCT350,0.00,VWS V15.00,2017-12-17 15:19:00,
2017-12-17 10:24:00,68.0,60.9,30.27,ESE,112,5.0,8.0,78,0.00,,SCT350,0.00,VWS V15.00,2017-12-17 15:24:00,
2017-12-17 10:28:00,68.0,60.5,30.27,ESE,112,8.0,8.0,77,0.00,,SCT350,0.00,VWS V15.00,2017-12-17 15:28:00,
2017-12-17 10:34:00,69.0,61.5,30.27,ESE,112,8.0,12.0,77,0.00,,SCT350,0.00,VWS V15.00,2017-12-17 15:34:00,
2017-12-17 10:39:00,69.0,61.1,30.27,ESE,112,9.0,10.0,76,0.00,,SCT350,0.00,VWS V15.00,2017-12-17 15:39:00,
2017-12-17 10:44:00,69.0,61.1,30.27,ESE,112,10.0,14.0,76,0.00,,SCT350,0.00,VWS V15.00,2017-12-17 15:44:00,
2017-12-17 10:49:00,70.0,61.7,30.27,SE,135,7.0,8.0,75,0.00,,SCT350,0.00,VWS V15.00,2017-12-17 15:49:00,
2017-12-17 10:55:00,70.0,61.7,30.27,ESE,112,8.0,10.0,75,0.00,,SCT350,0.00,VWS V15.00,2017-12-17 15:55:00,
2017-12-17 10:58:00,71.0,62.7,30.27,ESE,112,10.0,12.0,75,0.00,,SCT350,0.00,VWS V15.00,2017-12-17 15:58:00,
2017-12-17 11:03:00,71.0,62.3,30.27,ESE,112,8.0,12.0,74,0.00,,FEW350,0.00,VWS V15.00,2017-12-17 16:03:00,
2017-12-17 11:08:00,71.0,62.3,30.27,ESE,112,3.0,6.0,74,0.00,,FEW350,0.00,VWS V15.00,2017-12-17 16:08:00,
2017-12-17 11:13:00,72.0,62.9,30.26,ESE,112,9.0,11.0,73,0.00,,FEW350,0.00,VWS V15.00,2017-12-17 16:13:00,
2017-12-17 11:18:00,72.0,62.5,30.27,ESE,112,10.0,14.0,72,0.00,,FEW350,0.00,VWS V15.00,2017-12-17 16:18:00,
2017-12-17 11:23:00,72.0,62.5,30.27,ESE,112,6.0,9.0,72,0.00,,FEW350,0.00,VWS V15.00,2017-12-17 16:23:00,
2017-12-17 11:28:00,72.0,62.5,30.26,ESE,112,5.0,7.0,72,0.00,,FEW350,0.00,VWS V15.00,2017-12-17 16:28:00,
2017-12-17 11:33:00,73.0,63.0,30.26,SE,135,8.0,12.0,71,0.00,,FEW350,0.00,VWS V15.00,2017-12-17 16:33:00,
2017-12-17 11:38:00,73.0,62.7,30.26,ESE,112,12.0,12.0,70,0.00,,FEW350,0.00,VWS V15.00,2017-12-17 16:38:00,
2017-12-17 11:43:00,73.0,62.2,30.26,ESE,112,11.0,11.0,69,0.00,,FEW350,0.00,VWS V15.00,2017-12-17 16:43:00,
2017-12-17 11:49:00,73.0,62.2,30.26,SE,135,4.0,8.0,69,0.00,,FEW350,0.00,VWS V15.00,2017-12-17 16:49:00,
2017-12-17 11:54:00,74.0,62.8,30.25,ESE,112,7.0,12.0,68,0.00,,FEW350,0.00,VWS V15.00,2017-12-17 16:54:00,
2017-12-17 11:57:00,74.0,62.4,30.24,South,180,11.0,16.0,67,0.00,,FEW350,0.00,VWS V15.00,2017-12-17 16:57:00,
2017-12-17 12:02:00,73.0,61.0,30.24,ESE,112,9.0,12.0,66,0.00,,SCT350,0.00,VWS V15.00,2017-12-17 17:02:00,
2017-12-17 12:05:00,73.0,61.0,30.24,ESE,112,9.0,13.0,66,0.00,,SCT350,0.00,VWS V15.00,2017-12-17 17:05:00,
2017-12-17 12:10:00,74.0,61.5,30.24,ESE,112,13.0,15.0,65,0.00,,SCT350,0.00,VWS V15.00,2017-12-17 17:10:00,
2017-12-17 12:15:00,73.0,60.5,30.24,SE,135,6.0,9.0,65,0.00,,SCT350,0.00,VWS V15.00,2017-12-17 17:15:00,
2017-12-17 12:20:00,74.0,61.5,30.23,South,180,9.0,12.0,65,0.00,,SCT350,0.00,VWS V15.00,2017-12-17 17:20:00,
2017-12-17 12:25:00,74.0,61.5,30.23,ESE,112,7.0,12.0,65,0.00,,SCT350,0.00,VWS V15.00,2017-12-17 17:25:00,
2017-12-17 12:28:00,74.0,61.5,30.23,ESE,112,7.0,10.0,65,0.00,,SCT350,0.00,VWS V15.00,2017-12-17 17:28:00,
2017-12-17 12:33:00,74.0,61.5,30.22,South,180,10.0,10.0,65,0.00,,SCT350,0.00,VWS V15.00,2017-12-17 17:33:00,
2017-12-17 12:38:00,74.0,61.5,30.22,ESE,112,7.0,8.0,65,0.00,,SCT350,0.00,VWS V15.00,2017-12-17 17:38:00,
2017-12-17 12:43:00,74.0,61.5,30.21,South,180,11.0,13.0,65,0.00,,SCT350,0.00,VWS V15.00,2017-12-17 17:43:00,
2017-12-17 12:49:00,74.0,61.1,30.22,SE,135,9.0,13.0,64,0.00,,SCT350,0.00,VWS V15.00,2017-12-17 17:49:00,
2017-12-17 12:54:00,74.0,61.1,30.21,ESE,112,8.0,10.0,64,0.00,,SCT350,0.00,VWS V15.00,2017-12-17 17:54:00,
2017-12-17 12:57:00,74.0,61.1,30.21,SE,135,15.0,15.0,64,0.00,,SCT350,0.00,VWS V15.00,2017-12-17 17:57:00,
2017-12-17 13:02:00,74.0,60.6,30.20,ESE,112,9.0,14.0,63,0.00,,FEW350,0.00,VWS V15.00,2017-12-17 18:02:00,
2017-12-17 13:07:00,75.0,61.6,30.20,ESE,112,11.0,11.0,63,0.00,,FEW350,0.00,VWS V15.00,2017-12-17 18:07:00,
2017-12-17 13:12:00,75.0,61.6,30.20,ESE,112,10.0,12.0,63,0.00,,FEW350,0.00,VWS V15.00,2017-12-17 18:12:00,
2017-12-17 13:18:00,75.0,61.6,30.19,ESE,112,10.0,14.0,63,0.00,,FEW350,0.00,VWS V15.00,2017-12-17 18:18:00,
2017-12-17 13:23:00,75.0,61.1,30.20,SE,135,14.0,16.0,62,0.00,,FEW350,0.00,VWS V15.00,2017-12-17 18:23:00,
2017-12-17 13:28:00,75.0,60.2,30.19,ESE,112,9.0,10.0,60,0.00,,FEW350,0.00,VWS V15.00,2017-12-17 18:28:00,
2017-12-17 13:33:00,75.0,60.2,30.19,ESE,112,6.0,11.0,60,0.00,,FEW350,0.00,VWS V15.00,2017-12-17 18:33:00,
2017-12-17 13:36:00,75.0,60.2,30.19,ESE,112,6.0,7.0,60,0.00,,FEW350,0.00,VWS V15.00,2017-12-17 18:36:00,
2017-12-17 13:42:00,76.0,60.7,30.19,WSW,247,2.0,9.0,59,0.00,,FEW350,0.00,VWS V15.00,2017-12-17 18:42:00,
2017-12-17 13:46:00,76.0,60.7,30.19,SE,135,12.0,13.0,59,0.00,,FEW350,0.00,VWS V15.00,2017-12-17 18:46:00,
2017-12-17 13:51:00,77.0,60.6,30.19,SSW,202,4.0,12.0,57,0.00,,FEW350,0.00,VWS V15.00,2017-12-17 18:51:00,
2017-12-17 13:56:00,77.0,60.1,30.19,South,180,5.0,7.0,56,0.00,,FEW350,0.00,VWS V15.00,2017-12-17 18:56:00,
2017-12-17 14:01:00,78.0,60.5,30.18,NW,315,3.0,9.0,55,0.00,,OVC350,0.00,VWS V15.00,2017-12-17 19:01:00,
2017-12-17 14:05:00,78.0,60.5,30.18,WSW,247,1.0,5.0,55,0.00,,OVC350,0.00,VWS V15.00,2017-12-17 19:05:00,
2017-12-17 14:10:00,79.0,61.0,30.19,ESE,112,1.0,5.0,54,0.00,,OVC350,0.00,VWS V15.00,2017-12-17 19:10:00,
2017-12-17 14:15:00,79.0,61.0,30.18,SSE,157,7.0,14.0,54,0.00,,OVC350,0.00,VWS V15.00,2017-12-17 19:15:00,
2017-12-17 14:20:00,79.0,61.0,30.19,SSE,157,11.0,15.0,54,0.00,,OVC350,0.00,VWS V15.00,2017-12-17 19:20:00,
2017-12-17 14:22:00,79.0,61.0,30.19,SSE,157,3.0,5.0,54,0.00,,OVC350,0.00,VWS V15.00,2017-12-17 19:22:00,
2017-12-17 14:27:00,79.0,61.0,30.19,South,180,3.0,7.0,54,0.00,,OVC350,0.00,VWS V15.00,2017-12-17 19:27:00,
2017-12-17 14:32:00,79.0,61.0,30.19,West,270,2.0,7.0,54,0.00,,OVC350,0.00,VWS V15.00,2017-12-17 19:32:00,
2017-12-17 14:37:00,80.0,61.3,30.18,SSE,157,7.0,8.0,53,0.00,,OVC350,0.00,VWS V15.00,2017-12-17 19:37:00,
2017-12-17 14:42:00,79.0,61.0,30.18,South,180,3.0,3.0,54,0.00,,OVC350,0.00,VWS V15.00,2017-12-17 19:42:00,
2017-12-17 14:47:00,79.0,61.0,30.18,ESE,112,5.0,5.0,54,0.00,,OVC350,0.00,VWS V15.00,2017-12-17 19:47:00,
2017-12-17 14:51:00,78.0,60.5,30.18,SSW,202,0.0,3.0,55,0.00,,OVC350,0.00,VWS V15.00,2017-12-17 19:51:00,
2017-12-17 14:57:00,78.0,61.0,30.18,ESE,112,5.0,9.0,56,0.00,,OVC350,0.00,VWS V15.00,2017-12-17 19:57:00,
2017-12-17 15:03:00,78.0,61.0,30.18,NW,315,0.0,3.0,56,0.00,,OVC350,0.00,VWS V15.00,2017-12-17 20:03:00,
2017-12-17 15:08:00,79.0,61.5,30.19,South,180,4.0,6.0,55,0.00,,OVC350,0.00,VWS V15.00,2017-12-17 20:08:00,
2017-12-17 15:13:00,79.0,61.0,30.19,South,180,2.0,6.0,54,0.00,,OVC350,0.00,VWS V15.00,2017-12-17 20:13:00,
2017-12-17 15:19:00,79.0,61.0,30.18,SE,135,2.0,7.0,54,0.00,,OVC350,0.00,VWS V15.00,2017-12-17 20:19:00,
2017-12-17 15:23:00,79.0,61.0,30.18,South,180,0.0,2.0,54,0.00,,OVC350,0.00,VWS V15.00,2017-12-17 20:23:00,
2017-12-17 15:28:00,79.0,61.0,30.19,ESE,112,2.0,3.0,54,0.00,,OVC350,0.00,VWS V15.00,2017-12-17 20:28:00,
2017-12-17 15:33:00,79.0,61.0,30.19,South,180,0.0,4.0,54,0.00,,OVC350,0.00,VWS V15.00,2017-12-17 20:33:00,
2017-12-17 15:36:00,79.0,61.0,30.19,SE,135,2.0,4.0,54,0.00,,OVC350,0.00,VWS V15.00,2017-12-17 20:36:00,
2017-12-17 15:40:00,78.0,60.5,30.19,South,180,0.0,5.0,55,0.00,,OVC350,0.00,VWS V15.00,2017-12-17 20:40:00,
2017-12-17 15:46:00,78.0,60.5,30.19,SSE,157,2.0,4.0,55,0.00,,OVC350,0.00,VWS V15.00,2017-12-17 20:46:00,
2017-12-17 15:52:00,78.0,60.5,30.19,South,180,5.0,7.0,55,0.00,,OVC350,0.00,VWS V15.00,2017-12-17 20:52:00,
2017-12-17 15:57:00,78.0,60.5,30.19,ESE,112,4.0,6.0,55,0.00,,OVC350,0.00,VWS V15.00,2017-12-17 20:57:00,
2017-12-17 16:03:00,78.0,61.0,30.18,SSE,157,2.0,3.0,56,0.00,,OVC350,0.00,VWS V15.00,2017-12-17 21:03:00,
2017-12-17 16:08:00,78.0,61.5,30.19,ESE,112,2.0,7.0,57,0.00,,OVC350,0.00,VWS V15.00,2017-12-17 21:08:00,
2017-12-17 16:13:00,78.0,61.5,30.18,SE,135,8.0,9.0,57,0.00,,OVC350,0.00,VWS V15.00,2017-12-17 21:13:00,
2017-12-17 16:18:00,78.0,61.0,30.18,SSE,157,8.0,9.0,56,0.00,,OVC350,0.00,VWS V15.00,2017-12-17 21:18:00,
2017-12-17 16:23:00,79.0,61.5,30.18,SSW,202,1.0,3.0,55,0.00,,OVC350,0.00,VWS V15.00,2017-12-17 21:23:00,
2017-12-17 16:28:00,78.0,60.5,30.18,SSE,157,4.0,7.0,55,0.00,,OVC350,0.00,VWS V15.00,2017-12-17 21:28:00,
2017-12-17 16:29:00,78.0,60.5,30.18,SSE,157,4.0,6.0,55,0.00,,OVC350,0.00,VWS V15.00,2017-12-17 21:29:00,
2017-12-17 16:35:00,78.0,61.0,30.18,SSE,157,4.0,7.0,56,0.00,,OVC350,0.00,VWS V15.00,2017-12-17 21:35:00,
2017-12-17 16:40:00,78.0,61.0,30.18,ESE,112,8.0,9.0,56,0.00,,OVC350,0.00,VWS V15.00,2017-12-17 21:40:00,
2017-12-17 16:41:00,78.0,61.0,30.18,SE,135,5.0,8.0,56,0.00,,OVC350,0.00,VWS V15.00,2017-12-17 21:41:00,
2017-12-17 16:44:00,77.0,60.6,30.18,SSW,202,0.0,6.0,57,0.00,,OVC350,0.00,VWS V15.00,2017-12-17 21:44:00,
2017-12-17 16:49:00,77.0,61.1,30.18,SSW,202,3.0,4.0,58,0.00,,OVC350,0.00,VWS V15.00,2017-12-17 21:49:00,
2017-12-17 16:54:00,77.0,60.6,30.18,SE,135,2.0,5.0,57,0.00,,OVC350,0.00,VWS V15.00,2017-12-17 21:54:00,
2017-12-17 16:59:00,77.0,60.6,30.19,South,180,2.0,4.0,57,0.00,,OVC350,0.00,VWS V15.00,2017-12-17 21:59:00,
2017-12-17 17:04:00,78.0,61.5,30.18,SE,135,0.0,4.0,57,0.00,,OVC350,0.00,VWS V15.00,2017-12-17 22:04:00,
2017-12-17 17:06:00,78.0,61.5,30.19,SSE,157,2.0,2.0,57,0.00,,OVC350,0.00,VWS V15.00,2017-12-17 22:06:00,
2017-12-17 17:12:00,78.0,61.5,30.19,SSE,157,4.0,4.0,57,0.00,,OVC350,0.00,VWS V15.00,2017-12-17 22:12:00,
2017-12-17 17:17:00,78.0,61.5,30.18,SSE,157,2.0,3.0,57,0.00,,OVC350,0.00,VWS V15.00,2017-12-17 22:17:00,
2017-12-17 17:23:00,77.0,60.6,30.19,SSE,157,1.0,2.0,57,0.00,,OVC350,0.00,VWS V15.00,2017-12-17 22:23:00,
2017-12-17 17:26:00,77.0,61.1,30.18,SSW,202,5.0,5.0,58,0.00,,OVC350,0.00,VWS V15.00,2017-12-17 22:26:00,
2017-12-17 17:32:00,77.0,61.1,30.18,South,180,2.0,4.0,58,0.00,,BKN250,0.00,VWS V15.00,2017-12-17 22:32:00,